DW6455 Weather Reports


Display with metric or nautical units.
time (UTC)temp
F
wind
direction
speed
MPH
gust
MPH
rain 1hr
in
rain 24hr
in
rain mn
in
humidity
%
barometer
mb
20260904212520 43 0.0 0.0 0.00 0.00 0.00 1 995.2
20260904211520 43 0.0 0.0 0.00 0.00 0.00 1 995.2
20260904210520 43 0.0 0.0 0.00 0.00 0.00 1 995.3
20260904205521 44 0.0 0.0 0.00 0.00 0.00 1 995.3
20260904204521 44 0.0 0.0 0.00 0.00 0.00 1 995.4
20260904203520 44 0.0 0.0 0.00 0.00 0.00 1 995.4
20260904202541 45 0.0 0.0 0.00 0.00 0.00 1 995.5
20260904192520 46 45 1.0 2.0 0.00 0.00 0.00 1 995.8
20260904191520 47 0.0 0.0 0.00 0.00 0.00 1 995.8
20260904190520 47 0.0 0.0 0.00 0.00 0.00 1 995.9
20260904185520 47 0.0 0.0 0.00 0.00 0.00 1 995.9
20260904184521 48 0.0 0.0 0.00 0.00 0.00 1 996.0
20260904183520 48 0.0 0.0 0.00 0.00 0.00 1 996.1
20260904182540 49 0.0 0.0 0.00 0.00 0.00 1 996.1
20260904152521 54 0.0 0.0 0.00 0.00 0.00 51 996.4
20260904151520 55 0.0 0.0 0.00 0.00 0.00 55 996.5
20260904150521 55 0.0 0.0 0.00 0.00 0.00 52 996.5
20260904145521 55 0.0 0.0 0.00 0.00 0.00 49 996.5
20260904144520 56 0.0 0.0 0.00 0.00 0.00 50 996.6
20260904143521 56 0.0 0.0 0.00 0.00 0.00 53 996.6
20260904142521 56 0.0 0.0 0.00 0.00 0.00 54 996.7
20260904141521 57 0.0 0.0 0.00 0.00 0.00 52 996.8
20260904140521 57 0.0 0.0 0.00 0.00 0.00 53 996.8
20260904135520 58 0.0 2.0 0.00 0.00 0.00 35 996.9
20260904134521 58 0.0 0.0 0.00 0.00 0.00 50 997.0
20260904133520 57 23 1.0 3.0 0.00 0.00 0.00 42 997.1
20260904132520 58 23 2.0 4.0 0.00 0.00 0.00 55 997.2
20260904131520 58 0.0 3.0 0.00 0.00 0.00 66 997.2
20260904130521 59 135 2.0 4.0 0.00 0.00 0.00 68 997.2
20260904125521 58 158 3.0 6.0 0.00 0.00 0.00 65 997.2
20260904124521 58 158 3.0 7.0 0.00 0.00 0.00 64 997.3
20260904123521 57 135 2.0 6.0 0.00 0.00 0.00 42 997.2
20260904122520 57 180 1.0 5.0 0.00 0.00 0.00 30 997.3
20260904121520 56 180 1.0 4.0 0.00 0.00 0.00 31 997.3
20260904120520 56 180 1.0 3.0 0.00 0.00 0.00 11 997.4
20260904115541 56 135 1.0 3.0 0.00 0.00 0.00 1 997.5
20260904095521 55 90 1.0 3.0 0.00 0.00 0.00 1 998.0
20260904094520 55 0.0 0.0 0.00 0.00 0.00 1 998.2
20260904093520 55 0.0 2.0 0.00 0.00 0.00 1 998.3
20260904092521 55 0.0 0.0 0.00 0.00 0.00 1 998.6
20260904091520 55 0.0 0.0 0.00 0.00 0.00 1 998.8
20260904090521 55 0.0 0.0 0.00 0.00 0.00 1 999.0
20260904085520 55 0.0 0.0 0.00 0.00 0.00 1 998.9
20260904084521 55 0.0 0.0 0.00 0.00 0.00 1 999.0
20260904083521 54 0.0 0.0 0.00 0.00 0.00 1 999.0
20260904082520 54 0.0 0.0 0.00 0.00 0.00 1 999.0
20260904081521 54 0.0 2.0 0.00 0.00 0.00 1 998.8
20260904080521 54 0.0 0.0 0.00 0.00 0.00 1 998.9
20260904075520 54 0.0 0.0 0.00 0.00 0.00 1 999.0
20260904074601 54 0.0 0.0 0.00 0.00 0.00 1 998.9
20260904064521 53 0.0 2.0 0.00 0.00 0.00 1 999.0
20260904063520 52 0.0 0.0 0.00 0.00 0.00 1 999.0
20260904062521 52 0.0 0.0 0.00 0.00 0.00 1 999.1
20260904061521 52 0.0 2.0 0.00 0.00 0.00 1 999.2
20260904060521 51 0.0 0.0 0.00 0.00 0.00 1 999.2
20260904055521 51 0.0 0.0 0.00 0.00 0.00 1 999.3
20260904054521 50 0.0 0.0 0.00 0.00 0.00 1 999.3
20260904053541 49 0.0 0.0 0.00 0.00 0.00 1 999.4
20260904043521 46 0.0 0.0 0.00 0.00 0.00 1 999.6
20260904042521 46 0.0 0.0 0.00 0.00 0.00 1 999.7
20260904041520 45 0.0 0.0 0.00 0.00 0.00 1 999.8
20260904040521 45 0.0 0.0 0.00 0.00 0.00 1 999.8
20260904035520 44 0.0 0.0 0.00 0.00 0.00 1 999.9
20260904034521 44 0.0 0.0 0.00 0.00 0.00 1 999.9
20260904033521 44 0.0 0.0 0.00 0.00 0.00 1 1000.1
20260904032521 44 0.0 0.0 0.00 0.00 0.00 1 1000.1
20260904031520 44 0.0 0.0 0.00 0.00 0.00 1 1000.2
20260904030521 44 0.0 0.0 0.00 0.00 0.00 1 1000.2
20260904025521 44 0.0 2.0 0.00 0.00 0.00 1 1000.4
20260904024521 44 0.0 0.0 0.00 0.00 0.00 1 1000.6
20260904023520 44 0.0 0.0 0.00 0.00 0.00 1 1000.6
20260904022521 45 0.0 0.0 0.00 0.00 0.00 1 1000.7
20260904021521 45 0.0 0.0 0.00 0.00 0.00 1 1000.7
20260904020520 45 0.0 0.0 0.00 0.00 0.00 1 1000.8
20260904015521 45 0.0 0.0 0.00 0.00 0.00 1 1000.9
20260904014521 45 0.0 0.0 0.00 0.00 0.00 1 1000.9
20260904013521 45 0.0 0.0 0.00 0.00 0.00 1 1000.8
20260904012540 46 0.0 0.0 0.00 0.00 0.00 1 1000.9
20260904002521 47 0.0 0.0 0.00 0.00 0.00 1 1001.2
20260904001521 47 0.0 0.0 0.00 0.00 0.00 1 1001.2
20260904000520 47 0.0 0.0 0.00 0.00 0.00 1 1001.3
20260903235520 47 0.0 0.0 0.00 0.00 0.00 1 1001.4
20260903234521 47 0.0 0.0 0.00 0.00 0.00 1 1001.4
20260903233520 47 0.0 0.0 0.00 0.00 0.00 1 1001.6
20260903232521 47 0.0 0.0 0.00 0.00 0.00 1 1001.6
20260903231601 47 0.0 0.0 0.00 0.00 0.00 1 1001.7